This demonstration page uses our WeatherBlox Daily Observations layout. Learn more.

40.92945, -100.16068

Hourly Observations for January 18, 2020

Temp ( °F °C ) Dew Point ( °F °C ) Humidity (%) Winds ( mph kmh ) Pressure ( in mb ) Visibility ( mi km ) Precip ( " mm )
12:15 am 00:15 Cloudy with Haze 24 -4.3 19 -7 82 82 NW 26 43 30.12 1020 5 8.0467 0 0
12:35 am 00:35 Mostly Cloudy 22 -5.7 16 -8.8 79 79 NNW 22 35 30.14 1021 10 16.0934 0 0
12:55 am 00:55 Mostly Cloudy 21 -6 15 -9.5 77 77 NNW 18 30 30.16 1021 10 16.0934 0 0
1:15 am 01:15 Cloudy 21 -6 15 -9.4 77 77 NNW 17 28 30.16 1021 10 16.0934 0 0
1:35 am 01:35 Mostly Cloudy 21 -6 16 -9.1 79 79 NNW 14 22 30.17 1022 10 16.0934 0 0
1:55 am 01:55 Mostly Cloudy 22 -5.8 16 -9 78 78 NW 14 22 30.18 1022 10 16.0934 0 0
2:15 am 02:15 Cloudy 24 -4.6 17 -8.3 76 76 NW 21 33 30.18 1022 10 16.0934 0 0
2:35 am 02:35 Partly Cloudy 23 -4.8 17 -8.5 76 76 NW 17 28 30.21 1023 10 16.0934 0 0
2:55 am 02:55 Clear 23 -4.8 16 -8.7 74 74 NW 21 33 30.25 1024 10 16.0934 0 0
3:15 am 03:15 Clear 23 -5.1 14 -10.1 68 68 NW 20 31 30.26 1025 10 16.0934 0 0
3:35 am 03:35 Clear 22 -5.3 14 -10.2 69 69 NW 25 41 30.26 1025 10 16.0934 0 0
3:55 am 03:55 Clear 22 -5.6 13 -10.3 70 70 NW 20 31 30.27 1025 10 16.0934 0 0
4:15 am 04:15 Clear 21 -6.2 14 -10.1 74 74 WNW 17 28 30.3 1026 10 16.0934 0 0
4:35 am 04:35 Clear 20 -6.6 15 -9.6 79 79 WNW 16 26 30.32 1027 10 16.0934 0 0
4:55 am 04:55 Clear 20 -6.6 15 -9.3 81 81 WNW 17 28 30.33 1027 10 16.0934 0 0
5:15 am 05:15 Clear 20 -6.9 15 -9.6 81 81 WNW 17 28 30.34 1027 10 16.0934 0 0
5:35 am 05:35 Clear 19 -7 14 -10 79 79 NW 18 30 30.34 1027 10 16.0934 0 0
5:55 am 05:55 Clear 19 -7.3 14 -10 81 81 NW 14 22 30.34 1028 10 16.0934 0 0
6:15 am 06:15 Clear 19 -7.5 13 -10.3 81 81 NW 14 22 30.35 1028 10 16.0934 0 0
6:35 am 06:35 Clear 19 -7.5 13 -10.5 79 79 NW 9 15 30.36 1028 10 16.0934 0 0
6:55 am 06:55 Clear 19 -7.2 12 -10.9 75 75 NW 12 19 30.37 1029 10 16.0934 0 0
7:15 am 07:15 Clear 18 -7.6 13 -10.8 78 78 NW 13 20 30.42 1030 10 16.0934 0 0
7:35 am 07:35 Clear 18 -7.9 12 -11.1 78 78 WNW 9 15 30.42 1030 10 16.0934 0 0
7:55 am 07:55 Clear 18 -8 12 -11.2 78 78 W 9 15 30.45 1031 10 16.0934 0 0
8:15 am 08:15 Sunny 18 -7.8 12 -11.1 77 77 NW 12 19 30.44 1031 10 16.0934 0 0
8:35 am 08:35 Sunny 19 -7.5 13 -10.8 78 78 WNW 13 20 30.44 1031 10 16.0934 0 0
8:55 am 08:55 Sunny 19 -7.2 13 -10.5 78 78 WNW 12 19 30.44 1031 10 16.0934 0 0
9:15 am 09:15 Sunny 20 -6.5 14 -10.2 75 75 WNW 13 20 30.45 1031 10 16.0934 0 0
9:35 am 09:35 Sunny 21 -5.9 14 -9.8 74 74 WNW 12 19 30.46 1031 10 16.0934 0 0
9:55 am 09:55 Sunny 22 -5.3 15 -9.3 74 74 WNW 13 20 30.45 1031 10 16.0934 0 0
10:15 am 10:15 Sunny 24 -4.5 16 -9 71 71 WNW 13 20 30.45 1031 10 16.0934 0 0
10:35 am 10:35 Sunny 25 -3.7 17 -8.4 70 70 WNW 14 22 30.45 1031 10 16.0934 0 0
10:55 am 10:55 Sunny 27 -3 18 -7.7 70 70 WNW 10 17 30.45 1031 10 16.0934 0 0
11:15 am 11:15 Sunny 28 -2.4 18 -7.6 68 68 WNW 10 17 30.44 1031 10 16.0934 0 0
11:35 am 11:35 Sunny 29 -1.7 19 -7.3 66 66 WNW 12 19 30.44 1031 10 16.0934 0 0
11:55 am 11:55 Sunny 30 -1.1 21 -6.1 69 69 WNW 10 17 30.43 1030 10 16.0934 0 0
12:15 pm 12:15 Sunny 32 -0.2 21 -6.2 64 64 NW 13 20 30.43 1030 10 16.0934 0 0
12:35 pm 12:35 Sunny 32 0 19 -7 60 60 NW 14 22 30.42 1030 10 16.0934 0 0
12:55 pm 12:55 Sunny 32 0.2 20 -6.7 60 60 NW 16 26 30.42 1030 10 16.0934 0 0
1:15 pm 13:15 Sunny 33 0.3 20 -6.5 61 61 WNW 16 26 30.4 1030 10 16.0934 0 0
1:35 pm 13:35 Sunny 33 0.3 20 -6.5 61 61 NW 14 22 30.42 1030 10 16.0934 0 0
1:55 pm 13:55 Sunny 33 0.3 21 -5.9 63 63 WNW 13 20 30.4 1030 10 16.0934 0 0
2:15 pm 14:15 Sunny 33 0.5 22 -5.4 65 65 WNW 12 19 30.4 1030 10 16.0934 0 0
2:35 pm 14:35 Sunny 33 0.8 22 -5.7 62 62 WNW 14 22 30.4 1029 10 16.0934 0 0
2:55 pm 14:55 Sunny 34 1 22 -5.6 62 62 WNW 12 19 30.4 1029 10 16.0934 0 0
3:15 pm 15:15 Sunny 34 1 23 -5.2 64 64 WNW 13 20 30.4 1029 10 16.0934 0 0
3:35 pm 15:35 Sunny 33 0.6 23 -4.8 67 67 WNW 10 17 30.4 1030 10 16.0934 0 0
3:55 pm 15:55 Sunny 33 0.7 24 -4.7 67 67 W 9 15 30.4 1029 10 16.0934 0 0
4:15 pm 16:15 Sunny 34 0.9 24 -4.4 68 68 W 9 15 30.41 1030 10 16.0934 0 0
4:35 pm 16:35 Sunny 33 0.7 25 -4.1 71 71 W 6 9 30.41 1030 10 16.0934 0 0
4:55 pm 16:55 Sunny 33 0.3 25 -3.7 75 75 W 5 7 30.42 1030 10 16.0934 0 0
5:15 pm 17:15 Sunny 32 0.1 25 -3.7 76 76 W 3 6 30.42 1030 10 16.0934 0 0
5:35 pm 17:35 Sunny 33 0.3 23 -4.9 68 68 Calm 30.43 1030 10 16.0934 0 0
5:55 pm 17:55 Clear 32 0 23 -5 69 69 Calm 30.42 1030 10 16.0934 0 0
6:15 pm 18:15 Clear 31 -0.4 23 -5 71 71 Calm 30.43 1031 10 16.0934 0 0
6:35 pm 18:35 Clear 30 -1.1 23 -5.2 74 74 Calm 30.45 1031 10 16.0934 0 0
6:55 pm 18:55 Clear 29 -1.6 23 -5 78 78 SW 7 11 30.45 1031 10 16.0934 0 0
7:15 pm 19:15 Clear 28 -2 22 -5.3 78 78 WSW 5 7 30.47 1032 10 16.0934 0 0
7:35 pm 19:35 Clear 28 -2.1 23 -5.1 80 80 W 3 6 30.47 1032 10 16.0934 0 0
7:55 pm 19:55 Clear 27 -2.8 23 -4.9 86 86 Calm 30.48 1032 10 16.0934 0 0
8:15 pm 20:15 Clear 27 -2.6 22 -5.8 79 79 WNW 5 7 30.48 1032 10 16.0934 0 0
8:35 pm 20:35 Clear 25 -3.7 20 -6.5 81 81 WNW 6 9 30.5 1033 10 16.0934 0 0
8:55 pm 20:55 Clear 24 -4.7 20 -6.9 85 85 WNW 6 9 30.51 1033 10 16.0934 0 0
9:15 pm 21:15 Clear 25 -4.1 20 -6.9 81 81 WNW 8 13 30.51 1033 10 16.0934 0 0
9:35 pm 21:35 Clear 24 -4.5 19 -7 83 83 W 9 15 30.51 1033 10 16.0934 0 0
9:55 pm 21:55 Clear 23 -5 19 -7.1 85 85 WNW 7 11 30.52 1034 10 16.0934 0 0
10:15 pm 22:15 Clear 21 -5.9 18 -8 85 85 WNW 7 11 30.54 1034 10 16.0934 0 0
10:35 pm 22:35 Clear 21 -6.1 17 -8.1 86 86 WNW 6 9 30.53 1034 10 16.0934 0 0
10:55 pm 22:55 Clear 20 -6.6 17 -8.4 87 87 NW 5 7 30.55 1034 10 16.0934 0 0
11:15 pm 23:15 Clear 21 -6.3 17 -8.4 85 85 NNW 5 7 30.55 1035 10 16.0934 0 0
11:35 pm 23:35 Clear 20 -6.8 16 -8.8 86 86 NNW 3 6 30.56 1035 10 16.0934 0 0
11:55 pm 23:55 Clear 19 -7 16 -9.1 85 85 WNW 5 7 30.57 1035 10 16.0934 0 0

Powered by AerisWeather